星链-5907 (STARLINK-5907 )

导读

STARLINK-5907是美国SpaceX公司“星链”星座中的一颗卫星,于2023年3月24日发射入轨。作为星链低轨互联网星座的组成部分,它运行于近地轨道,为全球用户提供高速宽带互联网接入服务,覆盖网络基础设施匮乏地区,同时还可服务于海事、航空等移动场景,并具备潜在军事应用价值,是星链大规模组网部署中的一环。

基本信息
目录编号:
56021
目录名称:
STARLINK-5907
国际标识:
2023-042AM
轨道中心:
EARTH
卫星名称:
星链-5907
卫星全名:
星链-5907 (STARLINK-5907 )
卫星状态:
在轨 (已飞行1267 天)
发射日期:
2023-03-24 UTC
国别 :
美国 (US)
星等 :
--
该卫星已列入 空间交会检测服务 Space Conjunction Data Service (SCDS) ,当前飞行风险评估等级: 无高风险
轨道信息
数据来源 国际轨道数据
星历时间: 2026-09-11T04:44:33+0800
18小时前
查看轨道信息
半长轴: 6861.193km
偏心率: 0.0000898
轨道倾角: 42.996°
近地点辐角 230.648°
升交点赤经 79.621°
平近点角 129.429°
近地点: 482.439km
远地点: 483.673km
周期: 94.267分钟
每日圈数: 15.275779
详细信息
固有亮度:
5
最大亮度:
2.5
卫星平台:
Starlink v1.5
覆盖范围:
全球
运营商:
太空探索技术公司
运营商所在国:
美国
制造商(研发单位):
太空探索技术公司
制造商所在国:
美国
使用方式:
暂无
卫星简介
星链(Starlink)计划是由太空探索技术公司(SpaceX)提出的一个巨型低轨卫星互联网星座项目,计划在2019年至2024年间在太空搭建由约1.2万颗卫星组成的“星链”网络,其中1584颗将部署在地球上空550千米处的近地轨道,并从2020年开始工作。该卫星仍在工作。
2D轨道图
3D轨道图
轨道高度分析图
轨道倾角分析图
轨道综合分析图
查看轨道综合分析图
交会数据列表
事件ID 空间交会对象 最接近时刻(TCA) 交会距离 交会风险概率(CRP) 交会风险指数(CRI) 操作
CDM_260912-103205-602106-644322
2026-09-12T
10:32:42+0000
0.881 km
远距离
3.039556E-5 中风险 0.65
CDM_260912-104305-602106-365321
2026-09-12T
10:43:56+0000
0.786 km
远距离
2.276926E-5 中风险 0.62
CDM_260912-235205-602106-644321
2026-09-12T
23:52:59+0000
0.977 km
远距离
2.144364E-5 中风险 0.62
CDM_260912-120605-602106-644321
2026-09-12T
12:06:51+0000
1.988 km
极远距离
2.1908E-6 低风险 0.42
CDM_260912-143905-602106-365322
2026-09-12T
14:39:18+0000
1.714 km
极远距离
1.776858E-6 低风险 0.4
CDM_260913-203805-602106-340721
2026-09-13T
20:38:19+0000
2.003 km
极远距离
1.512801E-6 低风险 0.39
CDM_260912-161305-602106-365321
2026-09-12T
16:13:27+0000
1.878 km
极远距离
1.398895E-6 低风险 0.38
CDM_260913-070904-380405-602122
SUOMI100 (43804)
2026-09-13T
07:09:25+0000
2.801 km
极远距离
1.320541E-6 低风险 0.37
CDM_260913-012705-602106-644321
2026-09-13T
01:27:08+0000
2.850 km
极远距离
1.105379E-6 低风险 0.36
CDM_260912-090905-602106-365322
2026-09-12T
09:09:46+0000
2.555 km
极远距离
7.535888E-7 极低风险 0.33
与全量物体交会距离演化趋势
与全量物体交会风险概率演化趋势